SL-16 DEB, 39722

Orbit data source: Space-Track

SL-16 DEB, 39722 is space debris in LEO originally from a launch on Fri, 25 Dec 1992 UTC launched from the Tyuratam Missile And Space Complex (TTMTR). Debris objects in space refer to the collection of defunct objects orbiting the Earth. Examples of debris include non-operational satellites, rocket bodies, and fragments generated from explosions, collisions, or faulty payload assembly.

Loading next visibility...
Identifier
39722, 1992-093KN
Orbit
LEO
Country
Flag of CISCIS
Related business
Manufacturer
Unknown
Mission
Spacecraft
Bus & Motor
Unknown
Mass
Unknown
Launch date (UTC)
1992-12-25 (33 years ago)
Launch vehicle
Unknown
Launch site
Tyuratam Missile And Space Complex (TTMTR)
Object type
Payload
Rocket body
Debris
Shape & HBR
Unknown shape, 0.1 m
Radar Cross Section
Small (<0.1 m²)

Expand to show TLE details & history
Last TLE update: 3 days ago

TLE from 3 days ago
0 SL-16 DEB
1 39722U 92093KN  25305.75882377  .00000720  00000-0  48035-3 0  9990
2 39722  70.8914 126.4583 0106231 240.7382 134.8699 14.01822220589770
Epoch: 2025-11-01T18:12Z
TLE epoch observation values (Epoch: 2025-11-01T18:12:42.373Z)
Latitude
15.51956°
Longitude
177.48935°
Altitude
944.053 km
Speed
7.353 km/s
True Right ascension
08h 47m 48s
True Declination
15° 26' 00"
Sunlit
Object was in daylight at epoch
Visualization orbit readout
Latitude
Unknown
Longitude
Unknown
Altitude
Unknown
Speed
Unknown
Apparent Right ascension
Unknown
Apparent Declination
Unknown
Sunlit
N/A
Visualization observer readout
Local Sidereal Time
06:17:56
Azimuth
Unknown
Elevation
Unknown
Doppler factor
Unknown
Orbital elements
Apogee altitude
962.602 km
Perigee altitude
808.278 km
Semi-major axis
7,263.577 km
Eccentricity
0.01062
Inclination
70.8914°
RAAN
126.4583°
Arg. of periapsis
240.7382°
True anomaly
135.72458°
Mean anomaly
134.8699°
Eccentric anomaly
135.29804°
Mean motion
3.50604 °/min
Orbital period
102.68 mins
BSTAR
0.00048035
Loading maneuver chart data...
Computing Atmospheric mass density...

Documentation

Showing up to 5 results
|